Key Lake Airport
CYKJ : now visible

Airfield :











YOU CAN JOIN US ON...

 
LOGIN :

Register | Disclaimer

   EN    FR    IT 

 









Legend :    VFR   Marginal VFR   IFR   Intensive IFR   Very Intensive IFR
Visi :
Ceiling :
>= 8 km
>= 3000ft
5 to 8 km
1000 to 3000 ft
1500m to 5 km
500 to 1000 ft
800 to 1500m
200 to 500 ft
< 800m
< 200 ft
Symbols :   Thunderstorms  Fog  Heavy snow  Heavy precipitations  Wind > 20 kt






- Airport Elevation : 1679 ft
- IATA code : YKJ


CYKJ - Key Lake

CURRENT METAR :
  • 071500Z AUTO 10008KT 9SM CLR 23/14 A2959 RMK SLP023 DENSITY ALT 3300FT

EXPIRED METARs :
  • 071400Z AUTO 10005KT 9SM CLR 20/14 A2960 RMK SLP025 DENSITY ALT 3000FT
  • 071300Z AUTO 11008KT 9SM CLR 18/13 A2961 RMK SLP028 DENSITY ALT 2700FT

TAF TAF CYKJ
Valid from the 07 at 13:00 until the 08 at 00:00 UTC


071238Z 0713/0724 10008KT P6SM SKC
BECMG 0716/0718 14012KT
FM072000 16015KT P6SM FEW100
PROB30 0720/0724 VRB20G30KT 4SM TSRA BKN070CB RMK FCST BASED ON AUTO OBS. NXT FCST BY 071900Z
CZEG FIR / North America



MET'MAP, your aeronautical weather chart ! - Copyright ORBIFLY December 2007 - Disclaimer

ORBIFLY MET'MAP TEAM :

Programming & Development : Alexandra Zaïnal
Concept & original design : Baudouin d'Aumeries
Assistance for programming : Marc-Olivier Méhu
Technical & hardware support : Manuel Goepfert

Contact : metmap@orbifly.com




SOURCES & CREDITS :

   NOAA       Earth
Advisory